Regional Weather Roundup
Issued by NWS Raleigh/Durham, NC

Home | Current Version | Previous Version | Text Only | Print | Product List | Glossary On
Versions: 1 2 3 4 5 6 7 8 9 10 11 12 13 14 15 16 17 18 19 20 21 22 23 24 25 26 27 28 29 30 31 32 33 34 35 36 37 38 39 40 41 42 43 44 45 46 47 48 49 50
000
ASUS42 KRAH 261910
RWRRAH
NORTH CAROLINA WEATHER ROUNDUP
NATIONAL WEATHER SERVICE RALEIGH NC
300 PM EDT THU MAR 26 2015

NOTE: "FAIR" INDICATES FEW OR NO CLOUDS BELOW 12,000 FEET WITH NO
SIGNIFICANT WEATHER AND/OR OBSTRUCTIONS TO VISIBILITY.

NCZ001-053-055-056-065-067-262000-
WESTERN NORTH CAROLINA

CITY           SKY/WX    TMP DP  RH WIND       PRES   REMARKS
ASHEVILLE      PTSUNNY   70  53  54 SW17      29.83F
JEFFERSON      CLOUDY    62  50  65 SE8       29.84R
MORGANTON      PTSUNNY   75  52  45 S5        29.83F
HICKORY        PTSUNNY   72  54  53 S14G21    29.80F
RUTHERFORDTON  PTSUNNY   73  55  52 S14G26    29.82F
MOUNT AIRY     PTSUNNY   69  58  68 S7        29.81F
BOONE          PTSUNNY   64  51  62 S10G22    29.84F
$$

NCZ021-022-025-041-071-084-088-262000-
CENTRAL NORTH CAROLINA

CITY           SKY/WX    TMP DP  RH WIND       PRES   REMARKS
CHARLOTTE      CLOUDY    71  55  56 S16       29.85F
GREENSBORO     PTSUNNY   71  56  58 SW14G21   29.80F
WINSTON-SALEM  MOSUNNY   69  54  58 SW9       29.81F
RALEIGH-DURHAM PTSUNNY   73  58  59 SW17G23   29.80F
FORT BRAGG     PTSUNNY   74  58  58 SW10      29.83F
FAYETTEVILLE   MOSUNNY   75  57  53 SW15G23   29.84F
BURLINGTON     PTSUNNY   73  55  53 S14G21    29.80F
LAURINBURG     PTSUNNY   76  58  53 SW10      29.85F
$$

NCZ011-015-027-028-043-044-047-080-103-262000-
NORTHEASTERN NORTH CAROLINA

CITY           SKY/WX    TMP DP  RH WIND       PRES   REMARKS
ROCKY MT-WILSO PTSUNNY   72  62  71 SW13G21   29.81F
GREENVILLE     PTSUNNY   70  64  83 SW8       29.84F
WASHINGTON     PTSUNNY   67  65  94 SW8       29.82F FOG
ELIZABETH CITY CLOUDY    72  63  73 S15G31    29.80F
MANTEO         PTSUNNY   65  60  83 S32       29.84F
CAPE HATTERAS  CLOUDY    69  61  75 S26G41    29.88F
$$

NCZ078-087-090-091-093-098-101-262000-
SOUTHEASTERN NORTH CAROLINA

CITY           SKY/WX    TMP DP  RH WIND       PRES   REMARKS
LUMBERTON      PTSUNNY   74  59  59 SW10      29.85F
GOLDSBORO      PTSUNNY   73  71  94 SW18G26   29.81F
KINSTON        PTSUNNY   72  63  73 SW10      29.84F
KENANSVILLE    PTSUNNY   74  54  49 SW10G21   29.86S
NEW BERN       PTSUNNY   77  55  46 SW15      29.84F
CHERRY POINT   PTSUNNY   73  60  63 S17G26    29.87F
BEAUFORT       SUNNY     68  61  78 S20G28    29.88F
JACKSONVILLE   PTSUNNY   78  54  43 SW14G24   29.85F
WILMINGTON     PTSUNNY   75  53  46 SW18G30   29.88F
$$



USA.gov is the U.S. government's official web portal to all federal, state and local government web resources and services.